Location: Newark
(22.3060°N, 114.2134°E)
Time: 20:14:06
(UTC+00:00)

Explorer 11/Cluster Stage 4 - Pass Details

Date: 02 August 2021
Orbit: 467 x 1256 km, 28.8° (Epoch: 27 September)

Event Time Altitude Azimuth Distance (km) Brightness Sun altitude
Rises 06:30:06 0° 287° (WNW) 4,109 10.6 61.3°
Reaches altitude 10° 06:33:11 10° 284° (WNW) 3,072 10.2 60.6°
Maximum altitude 06:40:42 61° 206° (SSW) 1,150 8.7 58.9°
Drops below altitude 10° 06:46:52 10° 127° (SE) 2,541 9.1 57.5°
Sets 06:49:13 0° 124° (ESE) 3,359 9.6 56.9°
